| time (UTC) | temp F | wind direction | speed knots | gust knots | rain 1hr in | rain 24hr in | rain mn in | humidity % | barometer mb |
| 20260506232907 | 47 | 317 | 0.9 | 3.5 | 0.00 | 0.35 | 0.00 | 97 | 1011.9 |
| 20260506232408 | 47 | 326 | 0.9 | 3.5 | 0.00 | 0.35 | 0.00 | 97 | 1012.0 |
| 20260506231908 | 47 | 271 | 0.0 | 2.6 | 0.00 | 0.35 | 0.00 | 97 | 1012.0 |
| 20260506231417 | 47 | 309 | 0.0 | 1.7 | 0.00 | 0.36 | 0.00 | 97 | 1012.0 |
| 20260506230908 | 47 | 309 | 0.0 | 1.7 | 0.00 | 0.36 | 0.00 | 97 | 1011.9 |
| 20260506230408 | 47 | 293 | 0.9 | 2.6 | 0.00 | 0.36 | 0.00 | 97 | 1011.8 |
| 20260506225908 | 47 | 315 | 0.9 | 2.6 | 0.00 | 0.36 | 0.00 | 97 | 1011.7 |
| 20260506225412 | 47 | 315 | 0.9 | 2.6 | 0.00 | 0.36 | 0.00 | 97 | 1011.6 |
| 20260506224907 | 47 | 298 | 0.9 | 3.5 | 0.00 | 0.36 | 0.00 | 97 | 1011.7 |
| 20260506224408 | 47 | 322 | 0.9 | 3.5 | 0.00 | 0.37 | 0.00 | 98 | 1011.7 |
| 20260506223908 | 47 | 257 | 0.9 | 2.6 | 0.00 | 0.37 | 0.00 | 98 | 1011.8 |
| 20260506223409 | 47 | 313 | 0.9 | 2.6 | 0.00 | 0.37 | 0.00 | 98 | 1011.7 |
| 20260506222908 | 47 | 303 | 0.9 | 2.6 | 0.00 | 0.37 | 0.00 | 98 | 1011.6 |
| 20260506222402 | 47 | 295 | 0.9 | 2.6 | 0.00 | 0.37 | 0.00 | 98 | 1011.6 |
| 20260506221856 | 47 | 289 | 0.9 | 4.3 | 0.00 | 0.38 | 0.00 | 98 | 1011.5 |
| 20260506221351 | 47 | 340 | 0.9 | 4.3 | 0.00 | 0.38 | 0.00 | 98 | 1011.4 |
| 20260506215833 | 47 | 314 | 1.7 | 6.1 | 0.00 | 0.38 | 0.38 | 98 | 1011.3 |
| 20260506215331 | 47 | 313 | 0.9 | 5.2 | 0.00 | 0.38 | 0.38 | 98 | 1011.3 |
| 20260506214832 | 47 | 340 | 0.9 | 4.3 | 0.00 | 0.38 | 0.38 | 98 | 1011.2 |
| 20260506214332 | 47 | 340 | 1.7 | 4.3 | 0.00 | 0.38 | 0.38 | 98 | 1011.2 |
| 20260506213833 | 47 | 25 | 1.7 | 5.2 | 0.00 | 0.39 | 0.38 | 98 | 1011.2 |
| 20260506213332 | 47 | 298 | 0.9 | 5.2 | 0.00 | 0.39 | 0.38 | 99 | 1011.1 |
| 20260506212832 | 47 | 315 | 0.9 | 3.5 | 0.00 | 0.39 | 0.38 | 98 | 1011.2 |
| 20260506212332 | 47 | 314 | 0.9 | 3.5 | 0.00 | 0.39 | 0.38 | 98 | 1011.3 |
| 20260506211834 | 47 | 355 | 1.7 | 5.2 | 0.00 | 0.39 | 0.38 | 98 | 1011.2 |
| 20260506211332 | 47 | 290 | 1.7 | 5.2 | 0.00 | 0.39 | 0.38 | 99 | 1011.2 |
| 20260506210832 | 47 | 19 | 0.9 | 4.3 | 0.00 | 0.39 | 0.38 | 99 | 1011.1 |
| 20260506210331 | 47 | 350 | 1.7 | 4.3 | 0.00 | 0.39 | 0.38 | 99 | 1011.1 |
| 20260506205833 | 47 | 342 | 1.7 | 4.3 | 0.00 | 0.39 | 0.38 | 99 | 1011.1 |
| 20260506205332 | 47 | 327 | 1.7 | 4.3 | 0.00 | 0.39 | 0.38 | 99 | 1011.0 |
| 20260506204834 | 47 | 325 | 1.7 | 4.3 | 0.00 | 0.39 | 0.38 | 99 | 1011.1 |
| 20260506203830 | 47 | 332 | 1.7 | 5.2 | 0.00 | 0.39 | 0.38 | 99 | 1011.1 |
| 20260506202825 | 47 | 306 | 1.7 | 7.0 | 0.00 | 0.39 | 0.38 | 99 | 1011.0 |
| 20260506202319 | 47 | 313 | 1.7 | 7.0 | 0.00 | 0.39 | 0.38 | 99 | 1011.0 |
| 20260506201814 | 47 | 297 | 1.7 | 7.0 | 0.00 | 0.39 | 0.38 | 99 | 1011.0 |
| 20260506201308 | 48 | 321 | 1.7 | 4.3 | 0.00 | 0.39 | 0.38 | 99 | 1011.0 |
| 20260506200801 | 48 | 312 | 1.7 | 3.5 | 0.00 | 0.39 | 0.38 | 99 | 1010.9 |
| 20260506200256 | 48 | 343 | 0.9 | 3.5 | 0.01 | 0.39 | 0.38 | 99 | 1010.9 |
| 20260506195749 | 48 | 317 | 0.0 | 1.7 | 0.01 | 0.39 | 0.38 | 99 | 1010.9 |
| 20260506195245 | 48 | 317 | 0.0 | 1.7 | 0.01 | 0.39 | 0.38 | 99 | 1010.8 |
| 20260506194739 | 47 | 317 | 0.0 | 1.7 | 0.01 | 0.39 | 0.38 | 99 | 1010.7 |
| 20260506194240 | 47 | 317 | 0.9 | 3.5 | 0.01 | 0.39 | 0.38 | 99 | 1010.6 |
| 20260506193727 | 47 | 317 | 1.7 | 6.1 | 0.01 | 0.39 | 0.38 | 99 | 1010.5 |
| 20260506193219 | 47 | 5 | 1.7 | 6.1 | 0.01 | 0.39 | 0.38 | 99 | 1010.5 |
| 20260506192207 | 48 | 5 | 2.6 | 8.7 | 0.01 | 0.39 | 0.38 | 99 | 1010.2 |
| 20260506191701 | 48 | 11 | 1.7 | 5.2 | 0.02 | 0.39 | 0.38 | 99 | 1010.1 |
| 20260506191156 | 48 | 328 | 0.9 | 4.3 | 0.02 | 0.39 | 0.38 | 99 | 1010.1 |
| 20260506190649 | 48 | 312 | 0.9 | 4.3 | 0.02 | 0.39 | 0.38 | 99 | 1010.1 |
| 20260506185637 | 48 | 334 | 0.9 | 2.6 | 0.01 | 0.38 | 0.37 | 99 | 1010.0 |
| 20260506185132 | 48 | 355 | 0.9 | 4.3 | 0.01 | 0.38 | 0.37 | 99 | 1010.1 |
| 20260506184626 | 48 | 336 | 1.7 | 4.3 | 0.01 | 0.38 | 0.37 | 99 | 1010.0 |
| 20260506183614 | 48 | 309 | 1.7 | 6.1 | 0.01 | 0.38 | 0.37 | 99 | 1009.9 |
| 20260506183107 | 48 | 321 | 0.9 | 6.1 | 0.01 | 0.38 | 0.37 | 99 | 1009.8 |
| 20260506182601 | 48 | 317 | 0.9 | 3.5 | 0.01 | 0.38 | 0.37 | 99 | 1009.8 |
| 20260506182055 | 48 | 310 | 0.9 | 3.5 | 0.00 | 0.37 | 0.37 | 99 | 1009.7 |
| 20260506181549 | 48 | 304 | 1.7 | 4.3 | 0.00 | 0.37 | 0.36 | 99 | 1009.7 |
| 20260506181052 | 48 | 321 | 0.9 | 4.3 | 0.00 | 0.37 | 0.36 | 99 | 1009.7 |
| 20260506180538 | 48 | 317 | 0.9 | 4.3 | 0.00 | 0.37 | 0.36 | 99 | 1009.7 |
| 20260506180031 | 48 | 5 | 0.9 | 2.6 | 0.00 | 0.37 | 0.36 | 99 | 1009.5 |
| 20260506175526 | 48 | 5 | 0.0 | 2.6 | 0.00 | 0.37 | 0.36 | 99 | 1009.5 |
| 20260506175021 | 48 | 5 | 0.9 | 2.6 | 0.00 | 0.37 | 0.36 | 99 | 1009.5 |
| 20260506174514 | 48 | 5 | 0.9 | 2.6 | 0.00 | 0.37 | 0.36 | 99 | 1009.4 |
| 20260506174008 | 48 | 5 | 0.9 | 2.6 | 0.00 | 0.37 | 0.36 | 99 | 1009.3 |
| 20260506173502 | 48 | 5 | 0.9 | 3.5 | 0.01 | 0.37 | 0.36 | 98 | 1009.3 |
| 20260506172958 | 48 | 312 | 0.9 | 3.5 | 0.01 | 0.37 | 0.36 | 98 | 1009.2 |
| 20260506172449 | 48 | 312 | 0.9 | 3.5 | 0.01 | 0.37 | 0.36 | 98 | 1009.2 |
| 20260506171437 | 48 | 5 | 0.9 | 2.6 | 0.01 | 0.37 | 0.36 | 98 | 1009.2 |
| 20260506170932 | 48 | 345 | 0.9 | 2.6 | 0.01 | 0.37 | 0.36 | 98 | 1009.2 |
| 20260506170426 | 48 | 333 | 1.7 | 4.3 | 0.01 | 0.37 | 0.36 | 98 | 1009.2 |
| 20260506165919 | 48 | 331 | 1.7 | 4.3 | 0.01 | 0.37 | 0.36 | 98 | 1009.2 |
| 20260506165414 | 48 | 346 | 0.9 | 6.1 | 0.01 | 0.37 | 0.36 | 98 | 1009.2 |
| 20260506164907 | 48 | 313 | 0.9 | 6.1 | 0.01 | 0.37 | 0.36 | 98 | 1009.3 |
| 20260506164403 | 48 | 319 | 2.6 | 6.1 | 0.01 | 0.37 | 0.36 | 98 | 1009.2 |
| 20260506163857 | 48 | 326 | 2.6 | 6.1 | 0.00 | 0.36 | 0.35 | 97 | 1009.2 |
| 20260506162845 | 48 | 329 | 1.7 | 5.2 | 0.00 | 0.36 | 0.35 | 98 | 1009.0 |
| 20260506162339 | 48 | 342 | 1.7 | 5.2 | 0.00 | 0.36 | 0.35 | 98 | 1009.0 |
| 20260506161833 | 48 | 325 | 1.7 | 7.0 | 0.00 | 0.36 | 0.35 | 98 | 1009.0 |
| 20260506161327 | 48 | 337 | 1.7 | 7.0 | 0.00 | 0.36 | 0.35 | 98 | 1009.0 |
| 20260506160821 | 48 | 310 | 1.7 | 5.2 | 0.00 | 0.36 | 0.35 | 98 | 1008.9 |
| 20260506160315 | 48 | 330 | 1.7 | 5.2 | 0.00 | 0.36 | 0.35 | 97 | 1008.9 |
| 20260506155816 | 48 | 334 | 1.7 | 4.3 | 0.00 | 0.36 | 0.35 | 97 | 1008.8 |
| 20260506155306 | 48 | 315 | 1.7 | 6.1 | 0.00 | 0.36 | 0.35 | 97 | 1008.8 |
| 20260506154757 | 49 | 0 | 2.6 | 7.0 | 0.00 | 0.36 | 0.35 | 97 | 1008.9 |
| 20260506154251 | 49 | 306 | 2.6 | 8.7 | 0.00 | 0.36 | 0.35 | 97 | 1008.8 |
| 20260506153744 | 49 | 14 | 3.5 | 8.7 | 0.00 | 0.36 | 0.35 | 97 | 1008.8 |
| 20260506152227 | 48 | 5 | 1.7 | 7.0 | 0.00 | 0.36 | 0.35 | 97 | 1008.9 |
| 20260506151217 | 48 | 355 | 2.6 | 7.0 | 0.00 | 0.36 | 0.35 | 97 | 1008.9 |
| 20260506150717 | 48 | 288 | 1.7 | 7.0 | 0.00 | 0.36 | 0.35 | 97 | 1008.8 |
| 20260506150217 | 48 | 309 | 2.6 | 7.8 | 0.00 | 0.36 | 0.35 | 97 | 1008.8 |
| 20260506145717 | 48 | 313 | 2.6 | 7.8 | 0.00 | 0.36 | 0.35 | 97 | 1008.7 |
| 20260506144717 | 49 | 290 | 2.6 | 7.0 | 0.00 | 0.36 | 0.35 | 96 | 1008.5 |
| 20260506143718 | 49 | 355 | 1.7 | 5.2 | 0.01 | 0.36 | 0.35 | 97 | 1008.6 |
| 20260506143217 | 49 | 25 | 2.6 | 7.8 | 0.01 | 0.36 | 0.35 | 97 | 1008.5 |
| 20260506142720 | 49 | 297 | 2.6 | 7.8 | 0.01 | 0.36 | 0.35 | 97 | 1008.5 |
| 20260506142217 | 49 | 320 | 2.6 | 6.1 | 0.01 | 0.36 | 0.35 | 97 | 1008.5 |
| 20260506141717 | 49 | 297 | 1.7 | 5.2 | 0.01 | 0.36 | 0.35 | 97 | 1008.5 |
| 20260506141217 | 49 | 348 | 1.7 | 5.2 | 0.01 | 0.36 | 0.35 | 97 | 1008.5 |
| 20260506140718 | 49 | 350 | 2.6 | 5.2 | 0.01 | 0.36 | 0.35 | 97 | 1008.5 |
| 20260506135713 | 49 | 355 | 2.6 | 7.0 | 0.01 | 0.36 | 0.35 | 97 | 1008.5 |
| 20260506135214 | 48 | 330 | 2.6 | 7.0 | 0.01 | 0.36 | 0.35 | 97 | 1008.5 |
| 20260506134213 | 48 | 275 | 2.6 | 7.8 | 0.00 | 0.35 | 0.35 | 97 | 1008.6 |
| 20260506133713 | 48 | 319 | 2.6 | 7.8 | 0.00 | 0.35 | 0.35 | 97 | 1008.5 |
| 20260506133213 | 48 | 327 | 1.7 | 7.0 | 0.00 | 0.35 | 0.35 | 97 | 1008.5 |
| 20260506132714 | 48 | 311 | 1.7 | 3.5 | 0.00 | 0.35 | 0.35 | 97 | 1008.5 |
| 20260506132213 | 48 | 304 | 1.7 | 4.3 | 0.00 | 0.35 | 0.35 | 97 | 1008.5 |
| 20260506131713 | 48 | 304 | 1.7 | 5.2 | 0.00 | 0.35 | 0.35 | 97 | 1008.4 |
| 20260506131215 | 48 | 5 | 2.6 | 7.8 | 0.00 | 0.35 | 0.35 | 97 | 1008.4 |
| 20260506130714 | 48 | 327 | 2.6 | 7.8 | 0.00 | 0.35 | 0.35 | 97 | 1008.3 |
| 20260506130213 | 48 | 355 | 1.7 | 7.0 | 0.00 | 0.35 | 0.35 | 97 | 1008.2 |
| 20260506125713 | 48 | 316 | 2.6 | 7.0 | 0.00 | 0.35 | 0.35 | 98 | 1008.3 |
| 20260506125213 | 48 | 343 | 2.6 | 7.0 | 0.00 | 0.35 | 0.35 | 97 | 1008.3 |
| 20260506124715 | 48 | 316 | 2.6 | 6.1 | 0.00 | 0.35 | 0.35 | 98 | 1008.2 |
| 20260506124213 | 48 | 325 | 2.6 | 6.1 | 0.00 | 0.36 | 0.35 | 98 | 1008.2 |
| 20260506123711 | 48 | 355 | 2.6 | 6.1 | 0.00 | 0.36 | 0.35 | 98 | 1008.1 |
| 20260506123211 | 48 | 22 | 1.7 | 6.1 | 0.00 | 0.36 | 0.35 | 98 | 1008.1 |
| 20260506122159 | 48 | 344 | 2.6 | 6.1 | 0.00 | 0.36 | 0.35 | 98 | 1008.0 |
| 20260506121147 | 48 | 312 | 2.6 | 9.6 | 0.00 | 0.36 | 0.35 | 98 | 1008.0 |
| 20260506120641 | 49 | 313 | 2.6 | 7.8 | 0.00 | 0.36 | 0.35 | 97 | 1007.9 |
| 20260506115629 | 49 | 280 | 2.6 | 8.7 | 0.01 | 0.36 | 0.35 | 98 | 1007.8 |
| 20260506115123 | 49 | 319 | 3.5 | 7.8 | 0.01 | 0.36 | 0.35 | 98 | 1007.7 |
| 20260506114617 | 49 | 296 | 3.5 | 9.6 | 0.01 | 0.36 | 0.35 | 98 | 1007.6 |
| 20260506114112 | 49 | 317 | 3.5 | 9.6 | 0.01 | 0.36 | 0.35 | 98 | 1007.8 |
| 20260506113605 | 49 | 312 | 3.5 | 7.8 | 0.01 | 0.36 | 0.35 | 98 | 1007.7 |
| 20260506113101 | 49 | 350 | 2.6 | 7.8 | 0.02 | 0.36 | 0.35 | 98 | 1007.7 |
| 20260506112553 | 49 | 355 | 2.6 | 7.0 | 0.02 | 0.36 | 0.35 | 99 | 1007.6 |
| 20260506112047 | 49 | 310 | 1.7 | 7.0 | 0.02 | 0.36 | 0.35 | 99 | 1007.5 |
| 20260506111541 | 49 | 344 | 1.7 | 7.0 | 0.02 | 0.36 | 0.35 | 99 | 1007.5 |
| 20260506111035 | 49 | 348 | 2.6 | 7.0 | 0.02 | 0.36 | 0.35 | 99 | 1007.7 |
| 20260506110542 | 49 | 250 | 2.6 | 6.1 | 0.02 | 0.36 | 0.35 | 98 | 1007.5 |
| 20260506110023 | 49 | 347 | 2.6 | 6.1 | 0.02 | 0.35 | 0.34 | 99 | 1007.5 |
| 20260506105518 | 49 | 344 | 2.6 | 7.0 | 0.02 | 0.35 | 0.34 | 99 | 1007.5 |
| 20260506105011 | 49 | 322 | 2.6 | 7.0 | 0.03 | 0.35 | 0.34 | 99 | 1007.5 |
| 20260506103959 | 49 | 310 | 1.7 | 7.0 | 0.03 | 0.35 | 0.34 | 99 | 1007.5 |
| 20260506103453 | 49 | 312 | 2.6 | 7.0 | 0.03 | 0.35 | 0.34 | 99 | 1007.5 |
| 20260506102947 | 49 | 288 | 2.6 | 7.8 | 0.03 | 0.35 | 0.33 | 99 | 1007.5 |
| 20260506102441 | 49 | 304 | 2.6 | 7.0 | 0.03 | 0.35 | 0.33 | 99 | 1007.4 |
| 20260506101935 | 49 | 328 | 2.6 | 7.0 | 0.04 | 0.35 | 0.33 | 99 | 1007.3 |
| 20260506101429 | 49 | 355 | 2.6 | 7.0 | 0.03 | 0.34 | 0.32 | 99 | 1007.3 |
| 20260506100417 | 49 | 5 | 1.7 | 9.6 | 0.02 | 0.33 | 0.31 | 99 | 1007.2 |
| 20260506095406 | 49 | 315 | 2.6 | 7.8 | 0.03 | 0.33 | 0.31 | 99 | 1007.1 |
| 20260506094900 | 49 | 319 | 1.7 | 7.0 | 0.02 | 0.32 | 0.31 | 99 | 1007.2 |
| 20260506094353 | 49 | 317 | 1.7 | 7.0 | 0.02 | 0.32 | 0.31 | 99 | 1007.1 |
| 20260506093341 | 49 | 338 | 1.7 | 7.0 | 0.02 | 0.31 | 0.30 | 99 | 1007.1 |
| 20260506092329 | 49 | 292 | 2.6 | 7.0 | 0.02 | 0.31 | 0.30 | 99 | 1006.9 |
| 20260506091826 | 49 | 337 | 2.6 | 7.0 | 0.02 | 0.31 | 0.29 | 99 | 1007.0 |
| 20260506091317 | 49 | 284 | 1.7 | 4.3 | 0.02 | 0.31 | 0.29 | 100 | 1006.9 |
| 20260506090810 | 49 | 288 | 1.7 | 4.3 | 0.02 | 0.31 | 0.29 | 100 | 1006.9 |
| 20260506085800 | 49 | 263 | 1.7 | 7.0 | 0.01 | 0.30 | 0.28 | 99 | 1006.7 |
| 20260506085253 | 49 | 351 | 1.7 | 7.0 | 0.01 | 0.30 | 0.28 | 99 | 1006.7 |
| 20260506084748 | 49 | 302 | 1.7 | 4.3 | 0.02 | 0.30 | 0.28 | 99 | 1006.7 |
| 20260506084243 | 49 | 320 | 1.7 | 4.3 | 0.02 | 0.30 | 0.28 | 100 | 1006.7 |
| 20260506083736 | 49 | 294 | 1.7 | 7.8 | 0.01 | 0.29 | 0.28 | 100 | 1006.6 |
| 20260506083230 | 49 | 316 | 2.6 | 9.6 | 0.01 | 0.29 | 0.28 | 100 | 1006.6 |
| 20260506082724 | 49 | 307 | 2.6 | 9.6 | 0.01 | 0.29 | 0.28 | 100 | 1006.4 |
| 20260506082219 | 49 | 355 | 1.7 | 5.2 | 0.01 | 0.29 | 0.28 | 100 | 1006.4 |
| 20260506081713 | 49 | 297 | 1.7 | 5.2 | 0.02 | 0.29 | 0.28 | 100 | 1006.4 |
| 20260506080701 | 49 | 338 | 2.6 | 6.1 | 0.02 | 0.29 | 0.28 | 100 | 1006.4 |
| 20260506080154 | 49 | 316 | 1.7 | 6.1 | 0.02 | 0.29 | 0.28 | 100 | 1006.3 |
| 20260506072613 | 49 | 321 | 2.6 | 7.0 | 0.02 | 0.28 | 0.27 | 100 | 1006.2 |
| 20260506072106 | 49 | 345 | 3.5 | 9.6 | 0.02 | 0.28 | 0.27 | 100 | 1006.2 |
| 20260506071607 | 49 | 11 | 3.5 | 10.4 | 0.02 | 0.28 | 0.26 | 100 | 1006.2 |
| 20260506070606 | 49 | 346 | 3.5 | 8.7 | 0.02 | 0.28 | 0.26 | 100 | 1006.2 |
| 20260506070110 | 49 | 12 | 2.6 | 8.7 | 0.02 | 0.28 | 0.26 | 100 | 1006.2 |
| 20260506062106 | 49 | 308 | 1.7 | 7.0 | 0.02 | 0.26 | 0.24 | 100 | 1005.9 |
| 20260506061104 | 49 | 40 | 2.6 | 7.0 | 0.02 | 0.26 | 0.24 | 100 | 1005.9 |
| 20260506060606 | 49 | 312 | 2.6 | 7.0 | 0.02 | 0.26 | 0.24 | 100 | 1005.8 |
| 20260506051102 | 49 | 5 | 1.7 | 7.0 | 0.03 | 0.24 | 0.23 | 100 | 1005.8 |
| 20260506050615 | 49 | 313 | 2.6 | 7.0 | 0.03 | 0.24 | 0.22 | 100 | 1005.9 |
| 20260506045103 | 49 | 0 | 0.9 | 4.3 | 0.04 | 0.24 | 0.22 | 100 | 1005.8 |
| 20260506044603 | 49 | 287 | 0.9 | 4.3 | 0.03 | 0.23 | 0.21 | 100 | 1005.7 |
| 20260506043059 | 49 | 340 | 1.7 | 4.3 | 0.02 | 0.22 | 0.20 | 100 | 1005.8 |
| 20260506042553 | 49 | 298 | 1.7 | 3.5 | 0.03 | 0.22 | 0.20 | 100 | 1005.8 |
| 20260506042047 | 49 | 305 | 1.7 | 5.2 | 0.02 | 0.21 | 0.20 | 100 | 1005.7 |
| 20260506041541 | 49 | 317 | 1.7 | 5.2 | 0.02 | 0.21 | 0.20 | 100 | 1005.8 |
| 20260506040023 | 49 | 322 | 1.7 | 7.0 | 0.02 | 0.20 | 0.19 | 100 | 1005.7 |
| 20260506035517 | 49 | 309 | 1.7 | 7.0 | 0.03 | 0.20 | 0.19 | 100 | 1005.8 |
| 20260506035011 | 49 | 306 | 2.6 | 7.0 | 0.02 | 0.20 | 0.18 | 100 | 1005.8 |
| 20260506034505 | 49 | 327 | 2.6 | 7.0 | 0.02 | 0.20 | 0.18 | 100 | 1005.8 |
| 20260506033454 | 49 | 321 | 1.7 | 3.5 | 0.03 | 0.20 | 0.18 | 100 | 1005.8 |
| 20260506032947 | 49 | 329 | 1.7 | 4.3 | 0.02 | 0.19 | 0.18 | 100 | 1005.9 |
| 20260506031935 | 49 | 5 | 0.9 | 4.3 | 0.03 | 0.19 | 0.17 | 100 | 1005.9 |
| 20260506031429 | 49 | 261 | 1.7 | 4.3 | 0.03 | 0.19 | 0.17 | 99 | 1005.9 |
| 20260506030417 | 49 | 288 | 1.7 | 6.1 | 0.03 | 0.18 | 0.17 | 99 | 1006.1 |
| 20260506025911 | 49 | 324 | 1.7 | 6.1 | 0.03 | 0.18 | 0.17 | 99 | 1006.1 |
| 20260506024352 | 49 | 331 | 1.7 | 4.3 | 0.04 | 0.17 | 0.16 | 99 | 1006.3 |
| 20260506023847 | 49 | 314 | 1.7 | 4.3 | 0.03 | 0.17 | 0.16 | 100 | 1006.2 |
| 20260506023340 | 49 | 304 | 1.7 | 7.0 | 0.04 | 0.17 | 0.15 | 100 | 1006.3 |
| 20260506022834 | 49 | 300 | 1.7 | 7.0 | 0.05 | 0.17 | 0.15 | 100 | 1006.2 |
| 20260506022329 | 49 | 355 | 1.7 | 7.0 | 0.05 | 0.17 | 0.15 | 100 | 1006.3 |
| 20260506021823 | 49 | 337 | 1.7 | 6.1 | 0.05 | 0.16 | 0.14 | 100 | 1006.3 |
| 20260506021317 | 49 | 340 | 1.7 | 7.8 | 0.05 | 0.16 | 0.14 | 99 | 1006.3 |
| 20260506020811 | 49 | 323 | 1.7 | 7.8 | 0.06 | 0.16 | 0.14 | 99 | 1006.3 |
| 20260506020304 | 49 | 284 | 1.7 | 4.3 | 0.06 | 0.15 | 0.13 | 99 | 1006.3 |
| 20260506015759 | 49 | 337 | 1.7 | 4.3 | 0.06 | 0.15 | 0.13 | 99 | 1006.3 |
| 20260506015253 | 49 | 281 | 1.7 | 7.8 | 0.06 | 0.14 | 0.13 | 99 | 1006.4 |
| 20260506014746 | 49 | 320 | 1.7 | 7.8 | 0.06 | 0.14 | 0.13 | 99 | 1006.4 |
| 20260506014241 | 49 | 338 | 0.9 | 3.5 | 0.06 | 0.13 | 0.12 | 99 | 1006.5 |
| 20260506013736 | 49 | 355 | 0.9 | 3.5 | 0.06 | 0.13 | 0.11 | 99 | 1006.5 |
| 20260506013229 | 49 | 350 | 1.7 | 4.3 | 0.06 | 0.13 | 0.11 | 100 | 1006.6 |
| 20260506012722 | 49 | 311 | 1.7 | 4.3 | 0.06 | 0.12 | 0.10 | 100 | 1006.6 |
| 20260506012217 | 49 | 298 | 0.9 | 4.3 | 0.06 | 0.12 | 0.10 | 100 | 1006.6 |
| 20260506011711 | 49 | 346 | 1.7 | 4.3 | 0.06 | 0.11 | 0.09 | 100 | 1006.6 |
| 20260506010658 | 50 | 355 | 0.9 | 7.0 | 0.05 | 0.10 | 0.09 | 99 | 1006.6 |
| 20260506005646 | 50 | 355 | 1.7 | 4.3 | 0.05 | 0.09 | 0.08 | 99 | 1006.7 |
| 20260506003622 | 50 | 297 | 1.7 | 3.5 | 0.02 | 0.07 | 0.06 | 99 | 1006.8 |
| 20260506003116 | 50 | 309 | 1.7 | 6.1 | 0.02 | 0.06 | 0.05 | 99 | 1006.9 |
| 20260506002609 | 50 | 17 | 1.7 | 6.1 | 0.02 | 0.06 | 0.05 | 99 | 1007.0 |
| 20260506002103 | 50 | 342 | 0.9 | 4.3 | 0.02 | 0.06 | 0.05 | 99 | 1007.0 |
| 20260506001558 | 50 | 5 | 0.9 | 3.5 | 0.02 | 0.06 | 0.04 | 99 | 1007.1 |
| 20260506001052 | 50 | 339 | 0.9 | 4.3 | 0.02 | 0.06 | 0.04 | 99 | 1007.0 |
| 20260506000048 | 50 | 315 | 1.7 | 5.2 | 0.02 | 0.05 | 0.03 | 99 | 1007.1 |
| 20260505235534 | 50 | 327 | 1.7 | 6.1 | 0.02 | 0.05 | 0.03 | 99 | 1007.2 |
| 20260505235028 | 50 | 9 | 1.7 | 6.1 | 0.02 | 0.05 | 0.03 | 99 | 1007.3 |
| 20260505234521 | 50 | 319 | 0.9 | 3.5 | 0.02 | 0.05 | 0.03 | 99 | 1007.2 |
| 20260505233510 | 50 | 343 | 2.6 | 8.7 | 0.02 | 0.05 | 0.03 | 99 | 1007.3 |